This demonstration page uses our WeatherBlox Daily Observations layout. Learn more.

Left ArrowRight Arrow

47.50024, -111.30081

Hourly Observations for April 25, 2020

Temp ( °F °C ) Dew Point ( °F °C ) Humidity (%) Winds ( mph kmh ) Pressure ( in mb ) Visibility ( mi km ) Precip ( " mm )
12:53 am 00:53 Clear 34 1.1 25 -3.9 70 70 SW 9 15 30.16 1022 10 16 0.00 0.00
1:53 am 01:53 Clear 36 2.2 25 -3.9 64 64 SSW 10 17 30.16 1021 10 16 0.00 0.00
2:53 am 02:53 Clear 35 1.7 25 -3.9 67 67 SSW 10 17 30.16 1021 10 16 0.00 0.00
3:53 am 03:53 Clear 34 1.1 25 -3.9 70 70 SSW 10 17 30.16 1021 10 16 0.00 0.00
4:53 am 04:53 Clear 35 1.7 25 -3.9 67 67 SSW 12 19 30.15 1021 10 16 0.00 0.00
5:53 am 05:53 Clear 34 1.1 24 -4.4 67 67 SSW 12 19 30.14 1021 10 16 0.00 0.00
6:53 am 06:53 Sunny 37 2.8 25 -3.9 62 62 SSW 10 17 30.15 1021 10 16 0.00 0.00
7:53 am 07:53 Sunny 43 6.1 28 -2.2 56 56 SSW 10 17 30.14 1021 10 16 0.00 0.00
8:53 am 08:53 Sunny 49 9.4 29 -1.7 46 46 SSW 13 20 30.14 1021 10 16 0.00 0.00
9:53 am 09:53 Sunny 53 11.7 30 -1.1 41 41 SSW 13 20 30.11 1020 10 16 0.00 0.00
10:53 am 10:53 Sunny 57 13.9 29 -1.7 34 34 SW 13 20 30.09 1019 10 16 0.00 0.00
11:53 am 11:53 Sunny 59 15 30 -1.1 33 33 SW 16 26 30.07 1018 10 16 0.00 0.00
12:53 pm 12:53 Mostly Cloudy 59 15 29 -1.7 32 32 WSW 22 35 30.04 1017 10 16 0.00 0.00
1:53 pm 13:53 Mostly Sunny 60 15.6 30 -1.1 32 32 SW 15 24 30.02 1017 10 16 0.00 0.00
2:53 pm 14:53 Sunny 60 15.6 29 -1.7 31 31 W 20 31 29.99 1016 10 16 0.00 0.00
3:53 pm 15:53 Partly Cloudy 59 15 28 -2.2 31 31 WSW 22 35 29.98 1015 10 16 0.00 0.00
4:53 pm 16:53 Sunny 60 15.6 29 -1.7 31 31 SSW 13 20 29.93 1014 10 16 0.00 0.00
5:53 pm 17:53 Sunny 61 16.1 26 -3.3 26 26 WSW 20 31 29.91 1013 10 16 0.00 0.00
6:53 pm 18:53 Sunny 61 16.1 26 -3.3 26 26 SW 17 28 29.88 1012 10 16 0.00 0.00
7:53 pm 19:53 Mostly Cloudy 59 15 28 -2.2 31 31 WSW 10 17 29.86 1011 10 16 0.00 0.00
8:53 pm 20:53 Clear 51 10.6 28 -2.2 41 41 SW 10 17 29.84 1011 10 16 0.00 0.00
9:53 pm 21:53 Mostly Cloudy 54 12.2 29 -1.7 38 38 WSW 13 20 29.84 1011 10 16 0.00 0.00
10:53 pm 22:53 Cloudy 56 13.3 32 0 40 40 SW 25 41 29.82 1010 10 16 0.00 0.00
11:53 pm 23:53 Clear 52 11.1 29 -1.7 41 41 SW 22 35 29.83 1010 10 16 0.00 0.00

Powered by AerisWeather